Notices

What's New in latest Release from April 7th, 2021:

- Updated Glossary, including Speed of Maximum Gust, and Total Hourly Precipitation

- Updated national and regional climate services offices contacts and prices information

- Addition of station inventory lists for 1981-2010, 1971-2000, and 1961-1990 Normals.

If you haven't already, please take our survey and provide feedback about our website: https://eccc.sondage-survey.ca/f/LanguageSelection.aspx?s=442ca660-fcf1-47c0-95a9-59707d6fd709

Hourly Data Report for December 12, 2020

MUSKOKA
ONTARIO
Current Station Operator: NAVCAN

44°58'29.000" N
79°18'12.000" W
281.90 m
6115529
71532
YQA

Download Data

Hourly Data (December 2020)
Hourly Data Report for December 12, 2020
TIME
LST
Temp Definition
°C
Dew Point Definition
°C
Rel Hum Definition
%
Precip. Amount Definition
mm

Wind Dir Definition
10's deg

Wind Spd Definition
km/h
Visibility Definition
km
Stn Press Definition
kPa
Hmdx Definition


Wind Chill Definition


Weather Definition


00:00 1.7 0.2 90 LegendMM LegendMM 5 16.1 98.54     LegendNANA
01:00 1.7 0.1 89 LegendMM 7 11 16.1 98.53     LegendNANA
02:00 1.6 -0.2 88 LegendMM 8 8 16.1 98.60     LegendNANA
03:00 1.5 -0.3 88 LegendMM 6 5 16.1 98.53     LegendNANA
04:00 1.1 -0.1 92 LegendMM 7 5 14.5 98.46     Rain,Snow
05:00 0.5 -0.1 96 LegendMM 8 8 3.2 98.42     Snow
06:00 0.4 -0.2 96 LegendMM 7 8 2.8 98.41     Snow
07:00 0.4 0.0 97 LegendMM 6 8 2.8 98.34     Snow
08:00 0.5 -0.2 95 LegendMM 8 11 16.1 98.23     LegendNANA
09:00 0.7 -0.2 94 LegendMM 9 11 11.3 98.13     Rain
10:00 0.9 0.2 95 LegendMM 10 8 16.1 98.08     Rain
11:00 1.1 0.4 95 LegendMM 9 11 11.3 97.87     Rain
12:00 1.4 0.7 95 LegendMM 9 15 8.1 97.66     Rain,Fog
13:00 1.7 1.0 95 LegendMM 11 17 16.1 97.51     Rain
14:00 1.9 1.2 95 LegendMM 11 9 8.1 97.35     Rain,Fog
15:00 1.9 1.3 96 LegendMM 12 13 6.4 97.15     Moderate Rain,Fog
16:00 1.8 1.2 96 LegendMM 11 17 4.8 97.10     Moderate Rain,Fog
17:00 1.9 1.3 96 LegendMM 12 18 6.4 97.03     Moderate Rain,Fog
18:00 2.1 1.7 97 LegendMM 13 18 14.5 96.95     LegendNANA
19:00 2.9 2.5 97 LegendMM 15 15 6.4 96.90     Fog
20:00 3.8 3.4 97 LegendMM 15 22 4.8 96.81     Rain,Fog
21:00 4.9 4.6 98 LegendMM 17 26 4.8 96.77     Fog
22:00 5.4 5.1 98 LegendMM 18 18 4.0 96.77     Rain,Fog
23:00 5.6 5.2 97 LegendMM 17 15 6.4 96.73     Fog

Notes on Data Quality.

Legend

  • E = Estimated
  • M = Missing
  • NA = Not Available*
  • [empty] = Indicates an unobserved value
Date modified: